Time,TemperatureF,DewpointF,PressureIn,WindDirection,WindDirectionDegrees,WindSpeedMPH,WindSpeedGustMPH,Humidity,HourlyPrecipIn,Conditions,Clouds,dailyrainin,SolarRadiationWatts/m^2,SoftwareType,DateUTC
2013-03-18 00:02:00,67.0,64.0,-100.00,SSE,155,8.0,14.0,91,0.00,,,0.00,0.000000,,2013-03-18 05:02:00,
2013-03-18 00:32:00,67.0,65.0,-100.00,SSE,156,10.0,15.0,93,0.00,,,0.00,0.000000,,2013-03-18 05:32:00,
2013-03-18 00:43:00,67.0,65.0,-100.00,SSE,156,10.0,15.0,93,0.00,,,0.00,0.000000,,2013-03-18 05:43:00,
2013-03-18 00:52:00,67.0,65.0,-100.00,SSE,156,10.0,15.0,93,0.00,,,0.00,0.000000,,2013-03-18 05:52:00,
2013-03-18 01:02:00,67.0,65.0,-100.00,SSE,156,10.0,15.0,93,0.00,,,0.00,0.000000,,2013-03-18 06:02:00,
2013-03-18 01:32:00,67.0,66.0,-100.00,SSE,162,9.0,17.0,96,0.00,,,0.00,0.000000,,2013-03-18 06:32:00,
2013-03-18 01:42:00,67.0,66.0,-100.00,SSE,162,9.0,17.0,96,0.00,,,0.00,0.000000,,2013-03-18 06:42:00,
2013-03-18 01:52:00,67.0,66.0,-100.00,SSE,162,9.0,17.0,96,0.00,,,0.00,0.000000,,2013-03-18 06:52:00,
2013-03-18 02:02:00,67.0,66.0,-100.00,SSE,162,9.0,17.0,96,0.00,,,0.00,0.000000,,2013-03-18 07:02:00,
2013-03-18 02:33:00,66.0,65.0,-100.00,SSE,159,8.0,16.0,96,0.00,,,0.00,0.000000,,2013-03-18 07:33:00,
2013-03-18 02:43:00,66.0,65.0,-100.00,SSE,159,8.0,16.0,96,0.00,,,0.00,0.000000,,2013-03-18 07:43:00,
2013-03-18 02:53:00,66.0,65.0,-100.00,SSE,159,8.0,16.0,96,0.00,,,0.00,0.000000,,2013-03-18 07:53:00,
2013-03-18 03:02:00,66.0,65.0,-100.00,SSE,159,8.0,16.0,96,0.00,,,0.00,0.000000,,2013-03-18 08:02:00,
2013-03-18 03:32:00,66.0,65.0,-100.00,SSE,166,5.0,18.0,97,0.00,,,0.00,0.000000,,2013-03-18 08:32:00,
2013-03-18 03:43:00,66.0,65.0,-100.00,SSE,166,5.0,18.0,97,0.00,,,0.00,0.000000,,2013-03-18 08:43:00,
2013-03-18 03:53:00,66.0,65.0,-100.00,SSE,166,5.0,18.0,97,0.00,,,0.00,0.000000,,2013-03-18 08:53:00,
2013-03-18 04:02:00,66.0,65.0,-100.00,SSE,166,5.0,18.0,97,0.00,,,0.00,0.000000,,2013-03-18 09:02:00,
2013-03-18 04:33:00,65.0,65.0,-100.00,SSE,154,6.0,9.0,100,0.00,,,0.00,0.000000,,2013-03-18 09:33:00,
2013-03-18 04:43:00,65.0,65.0,-100.00,SSE,154,6.0,9.0,100,0.00,,,0.00,0.000000,,2013-03-18 09:43:00,
2013-03-18 04:53:00,65.0,65.0,-100.00,SSE,154,6.0,9.0,100,0.00,,,0.00,0.000000,,2013-03-18 09:53:00,
2013-03-18 05:03:00,65.0,65.0,-100.00,SSE,154,6.0,9.0,100,0.00,,,0.00,0.000000,,2013-03-18 10:03:00,
2013-03-18 05:33:00,66.0,66.0,-100.00,South,191,3.0,11.0,100,0.00,,,0.00,0.000000,,2013-03-18 10:33:00,
2013-03-18 05:42:00,66.0,66.0,-100.00,South,191,3.0,11.0,100,0.00,,,0.00,0.000000,,2013-03-18 10:42:00,
2013-03-18 05:53:00,66.0,66.0,-100.00,South,191,3.0,11.0,100,0.00,,,0.00,0.000000,,2013-03-18 10:53:00,
2013-03-18 06:03:00,66.0,66.0,-100.00,South,191,3.0,11.0,100,0.00,,,0.00,0.000000,,2013-03-18 11:03:00,
2013-03-18 06:32:00,66.0,66.0,-100.00,SSE,165,4.0,9.0,100,0.00,,,0.00,0.000000,,2013-03-18 11:32:00,
2013-03-18 06:43:00,66.0,66.0,-100.00,SSE,165,4.0,9.0,100,0.00,,,0.00,0.000000,,2013-03-18 11:43:00,
2013-03-18 06:52:00,66.0,66.0,-100.00,SSE,165,4.0,9.0,100,0.00,,,0.00,0.000000,,2013-03-18 11:52:00,
2013-03-18 07:02:00,66.0,66.0,-100.00,SSE,165,4.0,9.0,100,0.00,,,0.00,0.000000,,2013-03-18 12:02:00,
2013-03-18 07:33:00,67.0,67.0,-100.00,SW,214,4.0,13.0,100,0.00,,,0.00,0.000000,,2013-03-18 12:33:00,
2013-03-18 07:43:00,67.0,67.0,-100.00,SW,214,4.0,13.0,100,0.00,,,0.00,0.000000,,2013-03-18 12:43:00,
2013-03-18 07:52:00,67.0,67.0,-100.00,SW,214,4.0,13.0,100,0.00,,,0.00,0.000000,,2013-03-18 12:52:00,
2013-03-18 08:02:00,67.0,67.0,-100.00,SW,214,4.0,13.0,100,0.00,,,0.00,0.000000,,2013-03-18 13:02:00,
2013-03-18 08:33:00,68.0,68.0,-100.00,South,175,4.0,8.0,100,0.00,,,0.00,21.000000,,2013-03-18 13:33:00,
2013-03-18 08:42:00,68.0,68.0,-100.00,South,175,4.0,8.0,100,0.00,,,0.00,21.000000,,2013-03-18 13:42:00,
2013-03-18 08:52:00,68.0,68.0,-100.00,South,175,4.0,8.0,100,0.00,,,0.00,21.000000,,2013-03-18 13:52:00,
2013-03-18 09:02:00,68.0,68.0,-100.00,South,175,4.0,8.0,100,0.00,,,0.00,21.000000,,2013-03-18 14:02:00,
2013-03-18 09:32:00,69.0,68.0,-100.00,South,180,4.0,10.0,98,0.00,,,0.00,64.000000,,2013-03-18 14:32:00,
2013-03-18 09:42:00,69.0,68.0,-100.00,South,180,4.0,10.0,98,0.00,,,0.00,64.000000,,2013-03-18 14:42:00,
2013-03-18 09:52:00,69.0,68.0,-100.00,South,180,4.0,10.0,98,0.00,,,0.00,64.000000,,2013-03-18 14:52:00,
2013-03-18 10:02:00,69.0,68.0,-100.00,South,180,4.0,10.0,98,0.00,,,0.00,64.000000,,2013-03-18 15:02:00,
2013-03-18 10:33:00,72.0,68.0,-100.00,SSW,209,6.0,13.0,87,0.00,,,0.00,159.000000,,2013-03-18 15:33:00,
2013-03-18 10:43:00,72.0,68.0,-100.00,SSW,209,6.0,13.0,87,0.00,,,0.00,159.000000,,2013-03-18 15:43:00,
2013-03-18 10:52:00,72.0,68.0,-100.00,SSW,209,6.0,13.0,87,0.00,,,0.00,159.000000,,2013-03-18 15:52:00,
2013-03-18 11:03:00,72.0,68.0,-100.00,SSW,209,6.0,13.0,87,0.00,,,0.00,159.000000,,2013-03-18 16:03:00,
2013-03-18 11:33:00,75.0,67.0,-100.00,SSW,197,7.0,14.0,75,0.00,,,0.00,242.000000,,2013-03-18 16:33:00,
2013-03-18 11:42:00,75.0,67.0,-100.00,SSW,197,7.0,14.0,75,0.00,,,0.00,242.000000,,2013-03-18 16:42:00,
2013-03-18 11:53:00,75.0,67.0,-100.00,SSW,197,7.0,14.0,75,0.00,,,0.00,242.000000,,2013-03-18 16:53:00,
2013-03-18 12:02:00,75.0,67.0,-100.00,SSW,197,7.0,14.0,75,0.00,,,0.00,242.000000,,2013-03-18 17:02:00,
2013-03-18 12:33:00,77.0,65.0,-100.00,SSW,200,7.0,13.0,67,0.00,,,0.00,355.000000,,2013-03-18 17:33:00,
2013-03-18 12:43:00,77.0,65.0,-100.00,SSW,200,7.0,13.0,67,0.00,,,0.00,355.000000,,2013-03-18 17:43:00,
2013-03-18 12:52:00,77.0,65.0,-100.00,SSW,200,7.0,13.0,67,0.00,,,0.00,355.000000,,2013-03-18 17:52:00,
2013-03-18 13:02:00,77.0,65.0,-100.00,SSW,200,7.0,13.0,67,0.00,,,0.00,355.000000,,2013-03-18 18:02:00,
2013-03-18 13:32:00,80.0,62.0,-100.00,SW,229,9.0,17.0,55,0.00,,,0.00,609.000000,,2013-03-18 18:32:00,
2013-03-18 13:42:00,80.0,62.0,-100.00,SW,229,9.0,17.0,55,0.00,,,0.00,609.000000,,2013-03-18 18:42:00,
2013-03-18 13:52:00,80.0,62.0,-100.00,SW,229,9.0,17.0,55,0.00,,,0.00,609.000000,,2013-03-18 18:52:00,
2013-03-18 14:02:00,80.0,62.0,-100.00,SW,229,9.0,17.0,55,0.00,,,0.00,609.000000,,2013-03-18 19:02:00,
2013-03-18 14:33:00,83.0,62.0,-100.00,SSW,203,9.0,16.0,49,0.00,,,0.00,696.000000,,2013-03-18 19:33:00,
2013-03-18 14:42:00,83.0,62.0,-100.00,SSW,203,9.0,16.0,49,0.00,,,0.00,696.000000,,2013-03-18 19:42:00,
2013-03-18 14:52:00,83.0,62.0,-100.00,SSW,203,9.0,16.0,49,0.00,,,0.00,696.000000,,2013-03-18 19:52:00,
2013-03-18 15:02:00,83.0,62.0,-100.00,SSW,203,9.0,16.0,49,0.00,,,0.00,696.000000,,2013-03-18 20:02:00,
2013-03-18 15:33:00,83.0,61.0,-100.00,SSW,206,9.0,17.0,48,0.00,,,0.00,725.000000,,2013-03-18 20:33:00,
2013-03-18 15:43:00,83.0,61.0,-100.00,SSW,206,9.0,17.0,48,0.00,,,0.00,725.000000,,2013-03-18 20:43:00,
2013-03-18 15:52:00,83.0,61.0,-100.00,SSW,206,9.0,17.0,48,0.00,,,0.00,725.000000,,2013-03-18 20:52:00,
2013-03-18 16:02:00,83.0,61.0,-100.00,SSW,206,9.0,17.0,48,0.00,,,0.00,725.000000,,2013-03-18 21:02:00,
2013-03-18 16:33:00,84.0,62.0,-100.00,SSW,211,8.0,18.0,47,0.00,,,0.00,606.000000,,2013-03-18 21:33:00,
2013-03-18 16:43:00,84.0,62.0,-100.00,SSW,211,8.0,18.0,47,0.00,,,0.00,606.000000,,2013-03-18 21:43:00,
2013-03-18 16:53:00,84.0,62.0,-100.00,SSW,211,8.0,18.0,47,0.00,,,0.00,606.000000,,2013-03-18 21:53:00,
2013-03-18 17:03:00,84.0,62.0,-100.00,SSW,211,8.0,18.0,47,0.00,,,0.00,606.000000,,2013-03-18 22:03:00,
2013-03-18 17:33:00,84.0,61.0,-100.00,WSW,250,8.0,19.0,46,0.00,,,0.00,446.000000,,2013-03-18 22:33:00,
2013-03-18 17:42:00,84.0,61.0,-100.00,WSW,250,8.0,19.0,46,0.00,,,0.00,446.000000,,2013-03-18 22:42:00,
2013-03-18 17:53:00,84.0,61.0,-100.00,WSW,250,8.0,19.0,46,0.00,,,0.00,446.000000,,2013-03-18 22:53:00,
2013-03-18 18:03:00,84.0,61.0,-100.00,WSW,250,8.0,19.0,46,0.00,,,0.00,446.000000,,2013-03-18 23:03:00,
2013-03-18 18:33:00,82.0,61.0,-100.00,WSW,238,6.0,16.0,50,0.00,,,0.00,234.000000,,2013-03-18 23:33:00,
2013-03-18 18:43:00,82.0,61.0,-100.00,WSW,238,6.0,16.0,50,0.00,,,0.00,234.000000,,2013-03-18 23:43:00,
2013-03-18 18:53:00,82.0,61.0,-100.00,WSW,238,6.0,16.0,50,0.00,,,0.00,234.000000,,2013-03-18 23:53:00,
2013-03-18 19:02:00,82.0,61.0,-100.00,WSW,238,6.0,16.0,50,0.00,,,0.00,234.000000,,2013-03-19 00:02:00,
2013-03-18 20:33:00,70.0,64.0,-100.00,ESE,102,1.0,4.0,80,-99.99,,,0.00,1.000000,,2013-03-19 01:33:00,
2013-03-18 20:43:00,70.0,64.0,-100.00,ESE,102,1.0,4.0,80,-99.99,,,0.00,1.000000,,2013-03-19 01:43:00,
2013-03-18 20:52:00,70.0,64.0,-100.00,ESE,102,1.0,4.0,80,-99.99,,,0.00,1.000000,,2013-03-19 01:52:00,
2013-03-18 21:02:00,70.0,64.0,-100.00,ESE,102,1.0,4.0,80,-99.99,,,0.00,1.000000,,2013-03-19 02:02:00,
2013-03-18 21:33:00,63.0,60.0,-100.00,NW,312,4.0,26.0,91,0.00,,,0.00,0.000000,,2013-03-19 02:33:00,
2013-03-18 21:43:00,63.0,60.0,-100.00,NW,312,4.0,26.0,91,0.00,,,0.00,0.000000,,2013-03-19 02:43:00,
2013-03-18 21:53:00,63.0,60.0,-100.00,NW,312,4.0,26.0,91,0.00,,,0.00,0.000000,,2013-03-19 02:53:00,
2013-03-18 22:02:00,63.0,60.0,-100.00,NW,312,4.0,26.0,91,0.00,,,0.00,0.000000,,2013-03-19 03:02:00,
2013-03-18 22:33:00,63.0,63.0,-100.00,ENE,72,7.0,10.0,100,0.00,,,0.00,0.000000,,2013-03-19 03:33:00,
2013-03-18 22:43:00,63.0,63.0,-100.00,ENE,72,7.0,10.0,100,0.00,,,0.00,0.000000,,2013-03-19 03:43:00,
2013-03-18 22:54:00,63.0,63.0,-100.00,ENE,72,7.0,10.0,100,0.00,,,0.00,0.000000,,2013-03-19 03:54:00,
2013-03-18 23:03:00,63.0,63.0,-100.00,ENE,72,7.0,10.0,100,0.00,,,0.00,0.000000,,2013-03-19 04:03:00,
2013-03-18 23:34:00,62.0,62.0,-100.00,NNW,339,7.0,11.0,100,0.00,,,0.00,0.000000,,2013-03-19 04:34:00,
2013-03-18 23:43:00,62.0,62.0,-100.00,NNW,339,7.0,11.0,100,0.00,,,0.00,0.000000,,2013-03-19 04:43:00,
2013-03-18 23:53:00,62.0,62.0,-100.00,NNW,339,7.0,11.0,100,0.00,,,0.00,0.000000,,2013-03-19 04:53:00,